Location: Poughquag
(41.6090°N, 73.6820°W)
Time: 12:50:06
(UTC-04:00)

A-11 Canister half - Pass Details

Date: 30 May 2020
Orbit: 1527 x 1682 km, 47.3° (Epoch: 06 July)

Event Time Altitude Azimuth Distance (km) Brightness Sun altitude
Rises 15:04:34 0° 297° (WNW) 4,753 11.9 56.0°
Reaches altitude 10° 15:07:46 10° 291° (WNW) 3,787 11.6 55.5°
Maximum altitude 15:16:44 46° 223° (SW) 2,076 11.5 54.0°
Drops below altitude 10° 15:25:59 10° 154° (SSE) 3,888 11.2 52.3°
Sets 15:29:19 0° 149° (SSE) 4,889 11.6 51.7°
